SERIAL,TIME,MODEL,SN(OPTODE),OXYGEN,SATURATION,TEMPERATURE,CALPHASE,TCPHASE,C1RPH,C2RPH,C1AMP,C2AMP,RAWTEMP,CHECK
12,1336507313,4330,862,213.9557952880859400,68.9385223388671900,15.6343498229980470,32.8461189270019500,32.8997497558593750,37.4029006958007800,4.5031509399414060,705.3319091796875000,751.5869140625000000,233.6515045166015600,15558
12,1336510909,4330,862,210.4197998046875000,67.0762863159179700,15.1354799270629880,33.2863197326660160,33.3340911865234400,37.8070983886718750,4.4730072021484375,717.3250122070312000,756.4625244140625000,250.2089996337890600,39397
12,1336514509,4330,862,209.1598968505859400,66.5300369262695300,15.0349302291870120,33.4072494506835940,33.4534111022949200,37.9190101623535160,4.4656071662902830,720.7739257812500000,757.5402832031250000,253.5458984375000000,32480
12,1336518109,4330,862,208.9127044677734400,65.7168731689453100,14.5228900909423830,33.6718101501464840,33.7144508361816400,38.1752586364746100,4.4608149528503420,728.1306152343750000,762.4943847656250000,270.5344848632812500,344
12,1336521709,4330,862,208.3235931396484400,65.4463729858398400,14.4632596969604500,33.7353782653808600,33.7771682739257800,38.2357788085937500,4.4586110115051270,729.9257202148438000,763.1614990234375000,272.5122985839844000,41247
12,1336525309,4330,862,208.1553955078125000,65.4099121093750000,14.4747200012207030,33.7394104003906250,33.7811393737793000,38.2363014221191400,4.4551539421081540,729.8228759765625000,763.0166015625000000,272.1321105957031000,45757
12,1336528909,4330,862,206.4656982421875000,64.3222579956054700,14.0811300277709960,34.0333900451660160,34.0712089538574200,38.5247306823730500,4.4535222053527830,737.8615722656250000,766.8402709960938000,285.1835937500000000,29761
12,1336532509,4330,862,205.9362030029297000,64.0387725830078100,13.9970102310180660,34.1063690185546900,34.1432189941406250,38.5946693420410160,4.4514470100402830,739.9517822265625000,767.7896728515625000,287.9722900390625000,684
12,1336536109,4330,862,205.9618072509765600,64.0070419311523400,13.9688501358032230,34.1189308166503900,34.1556091308593750,38.6044006347656250,4.4487919807434080,740.3402709960938000,768.0194702148438000,288.9057922363281000,13234
12,1336539709,4330,862,203.7682952880859400,62.6235694885253900,13.4646902084350590,34.5021896362304700,34.5337600708007800,38.9807090759277340,4.4469528198242190,750.9262695312500000,772.9523925781250000,305.6093139648437500,58888
12,1336543309,4330,862,202.5408935546875000,62.2426490783691400,13.4620103836059570,34.5771293640136700,34.6077003479003900,39.0520591735839840,4.4443588256835940,752.7451171875000000,772.9353027343750000,305.6980895996094000,11653
12,1336546909,4330,862,201.2192993164062500,61.7486305236816400,13.3979797363281250,34.6894989013671900,34.7185707092285160,39.1614494323730500,4.4428791999816895,755.8701171875000000,773.7047729492188000,307.8185119628906000,15909
12,1336550509,4330,862,193.6506958007812500,58.6724014282226560,12.8265800476074220,35.4515419006347660,35.4704704284668000,39.9111785888671900,4.4407119750976560,776.5612792968750000,779.5775756835938000,326.7262878417969000,9203
12,1336554109,4330,862,187.5267028808593800,56.5539398193359400,12.6202201843261720,35.9555206298828100,35.9677314758300800,40.4062194824218750,4.4384918212890625,790.0031738281250000,781.7150878906250000,333.5481872558594000,58527
12,1336557709,4330,862,187.3435058593750000,56.5027885437011700,12.6234502792358400,35.9660491943359400,35.9781188964843750,40.4149284362793000,4.4368128776550290,790.2822265625000000,781.6566772460938000,333.4414978027344000,17184
12,1336561309,4330,862,184.0523986816406200,55.1198806762695300,12.3110504150390620,36.3479118347168000,36.3549003601074200,40.7920799255371100,4.4371871948242190,800.5825805664062000,784.7584838867188000,343.7615051269531000,19344
12,1336564909,4330,862,182.0579071044922000,54.3499794006347660,12.1711997985839840,36.5562591552734400,36.5604591369628900,40.9953804016113300,4.4349141120910645,806.1525268554688000,786.2910156250000000,348.3779907226562500,14458
12,1336568509,4330,862,182.0960998535156200,54.3578414916992200,12.1683197021484380,36.5553398132324200,36.5595588684082000,40.9916687011718750,4.4321141242980960,806.0485229492188000,786.2952270507812000,348.4732055664062500,19523
12,1336568995,4330,862,182.0830993652343800,54.1463890075683600,12.0000696182250980,36.6439018249511700,36.6469383239746100,41.0802001953125000,4.4332580566406250,808.5468750000000000,787.7678833007812000,354.0248107910156000,32765
12,1336569349,4330,862,187.3079071044922000,56.5575904846191400,12.6749296188354500,35.9416389465332000,35.9540290832519500,40.3890686035156250,4.4350361824035645,789.5275268554688000,782.1129150390625000,331.7398071289062500,41101
12,1336569591,4330,862,196.1835937500000000,59.9201889038085940,13.1862802505493160,35.1074905395507800,35.1310005187988300,39.5718994140625000,4.4408950805664060,767.0200195312500000,777.0800170898438000,314.8265991210937500,49557
12,1336569811,4330,862,201.5117950439453000,62.0037918090820300,13.5182800292968750,34.6108093261718750,34.6409416198730500,39.0856513977050800,4.4447097778320310,753.3782958984375000,773.2374267578125000,303.8345031738281000,9167
12,1336570034,4330,862,204.3065032958984400,63.4230918884277340,13.9190597534179690,34.2417182922363300,34.2767601013183600,38.7261505126953100,4.4493870735168460,743.2866821289062000,769.3281860351562000,290.5559082031250000,40465
12,1336570235,4330,862,205.8889007568359400,64.2292098999023400,14.1426095962524410,34.0361518859863300,34.0739288330078100,38.5269508361816400,4.4530181884765625,737.5839843750000000,766.7650146484375000,283.1455993652344000,31282
12,1336570367,4330,862,206.7187042236328000,64.7380676269531200,14.3191995620727540,33.9001998901367200,33.9398002624511700,38.3930511474609400,4.4532551765441895,733.8552246093750000,764.9243164062500000,277.2900085449219000,62041
12,1336570488,4330,862,207.6793060302734400,65.1876831054687500,14.4237203598022460,33.7923011779785160,33.8333396911621100,38.2881813049316400,4.4548420906066895,730.8557739257812000,763.8018798828125000,273.8236083984375000,5539
12,1336570622,4330,862,207.7135925292968800,65.4782104492187500,14.6201200485229500,33.6938209533691400,33.7361717224121100,38.1947784423828100,4.4586110115051270,728.3098754882812000,762.0747070312500000,267.3088073730469000,60241
12,1336570776,4330,862,207.9051971435547000,65.9776916503906200,14.9276695251464840,33.5316085815429700,33.5761108398437500,38.0364418029785160,4.4603271484375000,723.5515136718750000,759.2474975585938000,257.1048889160156000,15347
12,1336570911,4330,862,208.2828063964843800,66.4596176147461000,15.1805000305175780,33.3867111206054700,33.4331398010253900,37.8970794677734400,4.4639358520507810,719.5516967773438000,756.9730834960938000,248.7147979736328000,40285
12,1336571021,4330,862,209.1696014404297000,67.0406570434570300,15.3875503540039060,33.2355117797851560,33.2839584350585940,37.7511405944824200,4.4671778678894040,715.3784790039062000,754.7500000000000000,241.8430938720703000,43775
12,1336571131,4330,862,210.8863067626953000,67.8073577880859400,15.5365695953369140,33.0656089782714840,33.1163291931152340,37.5854911804199200,4.4691700935363770,710.6906127929688000,753.0026245117188000,236.8970947265625000,4047
12,1336571243,4330,862,211.9953002929687500,68.4119262695312500,15.7062501907348630,32.9216804504394500,32.9743118286132800,37.4475288391113300,4.4732208251953125,706.6331176757812000,751.1151733398438000,231.2651977539062500,35912
12,1336571353,4330,862,213.6746063232422000,69.2362594604492200,15.8977899551391600,32.7360610961914060,32.7911605834960940,37.2676582336425800,4.4765009880065920,701.6483764648438000,749.4700927734375000,224.9078063964843800,22998
12,1336571463,4330,862,215.0393981933593800,69.9357223510742200,16.0709991455078120,32.5775299072265600,32.6347389221191400,37.1135902404785160,4.4788508415222170,697.3571777343750000,747.7520141601562000,219.1585998535156200,465
12,1336571580,4330,862,218.2357025146484400,71.2298126220703100,16.2397994995117200,32.3229484558105500,32.3835487365722660,36.8634605407714840,4.4799041748046875,690.4887084960938000,746.2139282226562000,213.5567016601562500,32416
12,1336571723,4330,862,220.6562957763672000,72.2204284667968800,16.3712596893310550,32.1308097839355500,32.1939697265625000,36.6801414489746100,4.4861679077148440,685.2197265625000000,744.7413940429688000,209.1940002441406200,55645
12,1336571869,4330,862,219.7189025878906200,72.1943435668945300,16.5558395385742200,32.0944519042968750,32.1581001281738300,36.6426010131835940,4.4845051765441895,684.0272216796875000,743.0723876953125000,203.0691986083984400,63407
12,1336572012,4330,862,223.2915954589843800,73.5963897705078100,16.7033805847167970,31.8360404968261720,31.9031295776367200,36.3932495117187500,4.4901199340820310,677.0761718750000000,741.4968261718750000,198.1737976074218800,27655
12,1336572186,4330,862,225.6036987304687500,74.5957336425781200,16.8551502227783200,31.6452007293701170,31.7148399353027340,36.2079391479492200,4.4931030273437500,671.8750000000000000,740.0073242187500000,193.1392059326172000,49419
12,1336572296,4330,862,227.0630035400390600,75.2761306762695300,16.9808101654052730,31.5114803314209000,31.5828990936279300,36.0772590637207000,4.4943618774414060,668.1367797851562000,738.8041992187500000,188.9710998535156200,7008
12,1336572417,4330,862,229.7884979248047000,76.3871383666992200,17.1109199523925780,31.3127498626709000,31.3868103027343750,35.8838386535644500,4.4970321655273440,662.8038940429688000,737.6599121093750000,184.6558074951172000,8361
12,1336572529,4330,862,231.1844940185547000,76.9851837158203100,17.1944007873535160,31.2044200897216800,31.2799301147460940,35.7783584594726560,4.4984278678894040,659.9691772460938000,736.7813720703125000,181.8878021240234400,12809
12,1336572639,4330,862,232.4306030273437500,77.5318984985351600,17.2760295867919920,31.1046390533447270,31.1814708709716800,35.6807403564453100,4.4992680549621580,657.2659301757812000,736.0490112304688000,179.1811065673828000,27491
12,1336572749,4330,862,232.4855957031250000,77.6631469726562500,17.3459491729736330,31.0701999664306640,31.1474990844726560,35.6477088928222660,4.5002059936523440,656.3712768554688000,735.3004150390625000,176.8632049560547000,57029
12,1336572861,4330,862,232.8388977050781200,77.9549331665039000,17.4533290863037100,31.0035896301269530,31.0817699432373050,35.5820198059082000,4.5002517700195310,654.4984741210938000,734.5169067382812000,173.3036956787109400,9642
12,1336572971,4330,862,233.8773956298828000,78.4372482299804700,17.5361404418945300,30.9145507812500000,30.9939193725585940,35.4963607788085940,4.5024409294128420,652.0781250000000000,733.6746826171875000,170.5588989257812500,58254
12,1336573081,4330,862,234.4835968017578000,78.7659301757812500,17.6130104064941400,30.8501205444335940,30.9303398132324220,35.4338989257812500,4.5035548210144040,650.5880126953125000,732.8820800781250000,168.0117034912109400,61130
12,1336573204,4330,862,234.3408966064453000,78.8761672973632800,17.7100296020507800,30.8129692077636720,30.8936901092529300,35.3973884582519500,4.5036997795104980,649.4368896484375000,732.2332763671875000,164.7969970703125000,27906
12,1336573336,4330,862,234.0825042724609400,78.9071197509765600,17.7824192047119140,30.7930202484130860,30.8740100860595700,35.3780517578125000,4.5040440559387210,648.9749145507812000,731.4744262695312000,162.3988037109375000,48896
12,1336573471,4330,862,232.2926025390625000,78.4071884155273400,17.8463706970214840,30.8525791168212900,30.9327697753906250,35.4391899108886700,4.5064239501953125,650.7387695312500000,731.0297241210938000,160.2803039550781200,6306
12,1336573603,4330,862,229.5001983642578000,77.7438735961914000,18.0210304260253900,30.9130496978759770,30.9924392700195300,35.4997215270996100,4.5072779655456540,652.5382080078125000,729.7581176757812000,154.4962005615234400,23559
12,1336573658,4330,862,226.6876068115234400,76.9616165161132800,18.1289596557617200,31.0068397521972660,31.0849800109863280,35.5926094055175800,4.5076370239257810,655.2252807617188000,730.0775756835938000,150.9228973388672000,30023
12,1336573713,4330,862,226.3069000244140600,77.0614166259765600,18.2741203308105470,30.9608192443847660,31.0395698547363280,35.5481300354003900,4.5085530281066895,653.8159790039062000,729.1345825195312000,146.1184997558593800,18381
12,1336573788,4330,862,229.0061950683593800,78.5197067260742200,18.6113491058349600,30.6729393005371100,30.7555198669433600,35.2678413391113300,4.5123138427734375,645.8369140625000000,727.1763916015625000,134.9629058837890600,61316
12,1336573854,4330,862,233.7265014648437500,80.6932067871093800,18.9510707855224600,30.2887706756591800,30.3764705657959000,34.8949089050293000,4.5184397697448730,635.0803222656250000,723.7714843750000000,123.7350006103515600,22344
12,1336573920,4330,862,238.6943969726562500,82.6823577880859400,19.1151199340820300,29.9776802062988280,30.0695304870605470,34.5920906066894500,4.5225682258605960,626.3494262695312000,721.7487792968750000,118.3171005249023400,9444
12,1336573997,4330,862,247.2494964599609400,85.9085769653320300,19.2668704986572270,29.5139503479003900,29.6119804382324220,34.1368598937988300,4.5248789787292480,613.6690063476562000,718.8499755859375000,113.3078994750976600,24729
12,1336574077,4330,862,254.6853027343750000,88.5940170288086000,19.3239593505859380,29.1572494506835940,29.2600307464599600,33.7879600524902340,4.5279312133789060,603.9008178710938000,717.6873779296875000,111.4241027832031200,59749
12,1336574154,4330,862,258.1258850097656000,89.8101730346679700,19.3346195220947270,29.0030803680419920,29.1079101562500000,33.6385383605957000,4.5306320190429690,599.7833862304688000,717.1096191406250000,111.0721969604492200,18731
12,1336574231,4330,862,260.3602905273437500,90.6095962524414000,19.3466892242431640,28.9019203186035160,29.0081005096435550,33.5382003784179700,4.5300979614257810,597.1290283203125000,716.9829711914062000,110.6737976074218800,40652
12,1336574308,4330,862,261.5834960937500000,91.0537033081054700,19.3567199707031250,28.8455505371093750,28.9524803161621100,33.4834594726562500,4.5309748649597170,595.6636962890625000,716.8314819335938000,110.3430023193359400,45227
12,1336574388,4330,862,263.3370056152344000,91.6648406982421900,19.3571491241455080,28.7711296081542970,28.8790493011474600,33.4091110229492200,4.5300598144531250,593.5548095703125000,716.7559204101562000,110.3290023803711000,57224
12,1336574454,4330,862,264.0968933105469000,91.9314498901367200,19.3582706451416000,28.7387790679931640,28.8471393585205080,33.3748092651367200,4.5276718139648440,592.5864868164062000,717.9608764648438000,110.2919998168945300,62
12,1336574531,4330,862,264.4671936035156000,92.0662231445312500,19.3614406585693360,28.7217597961425780,28.8303394317626950,33.3575592041015600,4.5272221565246580,592.3626708984375000,716.8256835937500000,110.1871032714843800,28171
12,1336574608,4330,862,264.5802917480469000,92.1092071533203100,19.3633995056152340,28.7163105010986330,28.8249702453613280,33.3550300598144500,4.5300669670104980,592.3557739257812000,716.8568115234375000,110.1225967407226600,26218
12,1336574677,4330,862,264.7338867187500000,92.1662826538086000,19.3653297424316400,28.7090892791748050,28.8178405761718750,33.3462600708007800,4.5284190177917480,592.1644287109375000,718.0302124023438000,110.0588989257812500,22844
12,1336574765,4330,862,264.6825866699219000,92.1520767211914000,19.3673095703125000,28.7103996276855470,28.8191394805908200,33.3476905822753900,4.5285568237304690,592.2166137695312000,716.9392089843750000,109.9936981201171900,33696
12,1336574842,4330,862,264.8594970703125000,92.2121429443359400,19.3664894104003900,28.7032909393310550,28.8121204376220700,33.3399391174316400,4.5278167724609375,592.2116088867188000,716.9276733398438000,110.0206985473632800,2423
12,1336574930,4330,862,265.0533142089844000,92.2789993286132800,19.3661403656005860,28.6952800750732420,28.8042106628417970,33.3302497863769500,4.5260310173034670,592.0394287109375000,717.0418090820312000,110.0322036743164000,1299
12,1336575020,4330,862,265.1156921386719000,92.3105468750000000,19.3714599609375000,28.6903495788574220,28.7993507385253900,33.3262786865234400,4.5269241333007810,591.9901123046875000,717.1337280273438000,109.8567962646484400,6968
12,1336575097,4330,862,264.7434082031250000,92.1938400268554700,19.3784294128417970,28.7031497955322270,28.8119792938232420,33.3372383117675800,4.5252609252929690,592.3709716796875000,717.0178833007812000,109.6268005371093800,13609
12,1336575185,4330,862,264.5014038085937500,92.1173171997070300,19.3826007843017580,28.7114601135253900,28.8201808929443360,33.3467292785644500,4.5265498161315920,592.6166992187500000,717.1254882812500000,109.4890975952148400,52521
12,1336575262,4330,862,264.7179870605469000,92.1934509277343800,19.3829708099365230,28.7022209167480470,28.8110694885253900,33.3391990661621100,4.5281372070312500,592.4506225585938000,717.1950073242188000,109.4772033691406200,12319
12,1336575341,4330,862,265.3052062988281000,92.4019927978515600,19.3851394653320300,28.6768207550048830,28.7859992980957030,33.3140411376953100,4.5280380249023440,591.9851074218750000,717.1220703125000000,109.4054031372070300,3512
12,1336575407,4330,862,266.1163940429687500,92.6825408935546900,19.3840808868408200,28.6433296203613280,28.7529506683349600,33.2797508239746100,4.5268020629882810,591.0789794921875000,718.3527832031250000,109.4403991699218800,30252
12,1336575462,4330,862,266.1881103515625000,92.7143096923828100,19.3877105712890620,28.6388893127441400,28.7485694885253900,33.2749786376953100,4.5264048576354980,591.1041870117188000,718.3870849609375000,109.3205032348632800,20388
12,1336575517,4330,862,266.6523132324219000,92.8752288818359400,19.3873195648193360,28.6197605133056640,28.7297096252441400,33.2557106018066400,4.5260090827941895,590.4758300781250000,718.3889770507812000,109.3335037231445300,24610
12,1336575572,4330,862,267.8552856445312500,93.3149490356445300,19.3983497619628900,28.5653495788574220,28.6760196685791000,33.2012290954589840,4.5252151489257810,589.0328979492188000,718.3272705078125000,108.9694976806640600,35924
12,1336575629,4330,862,269.0646972656250000,93.7537231445312500,19.4075908660888670,28.5115299224853500,28.6229095458984380,33.1483383178710940,4.5254287719726560,587.5529785156250000,718.3477172851562000,108.6647033691406200,17866
12,1336575684,4330,862,270.3962097167969000,94.2428894042968800,19.4209003448486330,28.4514102935791000,28.5636005401611330,33.0875511169433600,4.5239558219909670,586.0723876953125000,718.3079833984375000,108.2257995605468800,5947
12,1336575739,4330,862,271.9619140625000000,94.8229675292968800,19.4389190673828120,28.3801593780517580,28.4932899475097660,33.0159988403320300,4.5227050781250000,583.9979248046875000,718.2656860351562000,107.6312026977539000,49702
12,1336575794,4330,862,273.1543884277344000,95.2562637329101600,19.4480895996093750,28.3280105590820300,28.4418392181396500,32.9667701721191400,4.5249328613281250,582.6547241210938000,718.1812744140625000,107.3287963867187500,41544
12,1336575849,4330,862,274.1817932128906000,95.6418762207031200,19.4623203277587900,28.2807407379150400,28.3952007293701170,32.9211692810058600,4.5259699821472170,581.3812866210938000,718.1198730468750000,106.8594970703125000,17274
12,1336575904,4330,862,275.1040954589844000,95.9802398681640600,19.4709300994873050,28.2401199340820300,28.3551197052001950,32.8779602050781250,4.5228419303894040,580.4141845703125000,718.0524291992188000,106.5755004882812500,36934
12,1336575961,4330,862,275.4982910156250000,96.1216964721679700,19.4729690551757800,28.2234401702880860,28.3386592864990230,32.8622512817382800,4.5235900878906250,579.9462280273438000,717.9716796875000000,106.5083007812500000,64792
12,1336576016,4330,862,275.7343139648437500,96.2245864868164000,19.4836006164550780,28.2095108032226560,28.3249092102050780,32.8511314392089840,4.5262150764465330,579.6528930664062000,718.0548095703125000,106.1576995849609400,48335
12,1336576071,4330,862,276.6748046875000000,96.5826568603515600,19.4990005493164060,28.1656093597412100,28.2816009521484380,32.8066787719726560,4.5250778198242190,578.4370117187500000,717.9677124023438000,105.6498031616211000,28395
12,1336576126,4330,862,277.3259887695312500,96.8392791748046900,19.5140304565429700,28.1336402893066400,28.2500591278076170,32.7748908996582000,4.5248260498046875,577.5120849609375000,717.8684082031250000,105.1541976928711000,36571
12,1336576181,4330,862,277.4396972656250000,96.9064636230468800,19.5281791687011720,28.1230697631835940,28.2396202087402340,32.7638511657714840,4.5242228507995605,577.3029785156250000,717.7991943359375000,104.6876983642578100,508
12,1336576236,4330,862,278.4212036132812500,97.3305664062500000,19.5697898864746100,28.0670204162597660,28.1843299865722660,32.7101898193359400,4.5258641242980960,575.9237060546875000,717.6234741210938000,103.3155975341796900,49805
12,1336576293,4330,862,278.8124084472656000,97.5078964233398400,19.5905494689941400,28.0429000854492200,28.1605205535888670,32.6852607727050800,4.5247340202331540,575.0374755859375000,717.3148193359375000,102.6312026977539000,27726
12,1336576348,4330,862,278.9331970214844000,97.6510009765625000,19.6420993804931640,28.0165290832519530,28.1345100402832030,32.6588096618652340,4.5243067741394040,574.3817749023438000,717.0885009765625000,100.9319000244140600,46840
12,1336576403,4330,862,278.8187866210937500,97.8255310058593800,19.7517795562744140,27.9751491546630860,28.0936698913574220,32.6187782287597660,4.5251078605651855,573.2105712890625000,716.5222778320312000,97.3173828125000000,77
12,1336576458,4330,862,279.0401000976562500,97.9405899047851600,19.7708892822265620,27.9583301544189450,28.0770893096923830,32.6045112609863300,4.5274200439453125,572.9183959960938000,716.0626831054688000,96.6879501342773400,64712
12,1336576513,4330,862,278.8082885742187500,97.9967269897461000,19.8411197662353500,27.9382495880126950,28.0572700500488280,32.5880317687988300,4.5307621955871580,572.4296264648438000,715.6760253906250000,94.3744964599609400,46041
12,1336576568,4330,862,278.4949035644531000,98.0870132446289000,19.9435901641845700,27.9076099395751950,28.0270404815673830,32.5560989379882800,4.5290598869323730,571.5651245117188000,714.9882202148438000,90.9998092651367200,42109
12,1336576643,4330,862,276.9045104980469000,98.0251998901367200,20.1996498107910160,27.8637104034423830,27.9837303161621100,32.5155410766601560,4.5318150520324710,570.1837158203125000,712.5833129882812000,82.5731887817382800,22349
12,1336576698,4330,862,275.2701110839844000,97.7421188354492200,20.3522491455078120,27.8648891448974600,27.9848899841308600,32.5206184387207000,4.5357360839843750,570.0513916015625000,711.9760742187500000,77.5552902221679700,27625
12,1336576753,4330,862,274.1319885253906000,97.4919433593750000,20.4320602416992200,27.8769302368164060,27.9967708587646500,32.5350799560546900,4.5383148193359375,570.4052734375000000,710.7841186523438000,74.9324569702148400,31472
12,1336576830,4330,862,272.9804992675781000,97.1717071533203100,20.4785499572753900,27.9034690856933600,28.0229492187500000,32.5644912719726560,4.5415420532226560,571.0958862304688000,708.7288818359375000,73.4049224853515600,59615
12,1336576907,4330,862,272.5280151367187500,97.0268783569336000,20.4869899749755860,27.9181804656982420,28.0374698638916000,32.5789299011230500,4.5414662361145020,571.5338134765625000,708.3245849609375000,73.1274871826171900,24463
12,1336576985,4330,862,272.2601013183594000,96.9450683593750000,20.4940700531005860,27.9258804321289060,28.0450706481933600,32.5848999023437500,4.5398330688476560,571.6298217773438000,708.1635742187500000,72.8948898315429700,24243
12,1336577040,4330,862,272.1765136718750000,96.9232711791992200,20.4982395172119140,27.9274692535400400,28.0466403961181640,32.5875396728515600,4.5409011840820310,571.7128295898438000,707.9389038085938000,72.7580032348632800,61712